Naples, FL

2:53 AM EDT on June 27, 2017 (GMT -0400)
Naples Municipal

Weather History for KAPF - June, 2014

Change the Weather History Date:

Friday, June 6, 2014

  Actual Average Record
Temperature  
Mean Temperature 82 °F 81 °F  
Max Temperature 89 °F 90 °F 98 °F (1985)
Min Temperature 74 °F 73 °F 64 °F (1955)
Degree Days  
Heating Degree Days 0 0  
Month to date heating degree days 0 0  
Since 1 June heating degree days 0 0  
Since 1 July heating degree days 149 260  
Cooling Degree Days 17 16  
Month to date cooling degree days 92 95  
Year to date cooling degree days 1281 1123  
Since 1 June cooling degree days 92 95  
Growing Degree Days 31 (Base 50)    
Moisture  
Dew Point 71 °F    
Average Humidity 72    
Maximum Humidity 94    
Minimum Humidity 50    
Precipitation  
Precipitation 0.00 in 0.21 in 3.37 in (2017)
Month to date precipitation 1.56 1.17  
Year to date precipitation 10.39 13.02  
Snow  
Snow 0.00 in - - ()
Month to date snowfall 0.0  
Since 1 June snowfall 0.0  
Since 1 July snowfall 0.0  
Snow Depth 0.00 in    
Sea Level Pressure  
Sea Level Pressure 29.95 in    
Wind  
Wind Speed 6 mph (WNW)    
Max Wind Speed 14 mph    
Max Gust Speed 17 mph    
Visibility 10 miles    
Events      
T = Trace of Precipitation, MM = Missing Value Source: NWS Daily Summary

Daily Weather History Graph

Daily Weather History Graph

Search for Another Location

Airport or City:

Trip Planner

Search our weather history database for the weather conditions in past years. The results will help you decide how hot, cold, wet, or windy it might be!

Date:

Astronomy

Jun. 06, 2014 Rise Set
Actual Time 6:34 AM EDT 8:17 PM EDT
Civil Twilight 6:08 AM EDT 8:43 PM EDT
Nautical Twilight 5:37 AM EDT 9:14 PM EDT
Astronomical Twilight 5:04 AM EDT 9:47 PM EDT
Moon 2:09 PM EDT (6/6) 1:48 AM EDT (6/6)
Length of Visible Light 14h 35m
Length of Day
13h 43m
First Quarter, 58% of the Moon is Illuminated
Jun 6
First Quarter
Jun 13
Full
Jun 19
Last Quarter
Jun 27
New
Jul 5
First Quarter

Hourly Weather History & Observations

Time (EDT) Temp. Heat Index Dew Point Humidity Pressure Visibility Wind Dir Wind Speed Gust Speed Precip Events Conditions
12:53 AM 81.0 °F 85.8 °F 73.0 °F 77% 29.97 in 10.0 mi Calm Calm - N/A   Mostly Cloudy
1:53 AM 79.0 °F - 73.9 °F 84% 29.96 in 10.0 mi NE 3.5 mph - N/A   Mostly Cloudy
2:53 AM 77.0 °F - 73.0 °F 88% 29.95 in 10.0 mi East 4.6 mph - N/A   Partly Cloudy
3:53 AM 75.9 °F - 73.0 °F 91% 29.94 in 10.0 mi Calm Calm - N/A   Clear
4:53 AM 73.9 °F - 72.0 °F 93% 29.91 in 10.0 mi SE 6.9 mph - N/A   Partly Cloudy
5:53 AM 75.0 °F - 70.0 °F 84% 29.91 in 10.0 mi SE 5.8 mph - N/A   Clear
6:53 AM 75.0 °F - 69.1 °F 82% 29.94 in 10.0 mi ESE 3.5 mph - N/A   Clear
7:53 AM 77.0 °F - 69.1 °F 76% 29.97 in 10.0 mi ENE 3.5 mph - N/A   Clear
8:53 AM 80.1 °F 82.9 °F 69.1 °F 69% 29.99 in 10.0 mi Calm Calm - N/A   Clear
9:53 AM 82.9 °F 87.5 °F 71.1 °F 67% 30.00 in 10.0 mi NNW 4.6 mph - N/A   Clear
11:53 AM 84.9 °F 90.7 °F 72.0 °F 65% 29.99 in 10.0 mi NW 9.2 mph - N/A   Mostly Cloudy
12:53 PM 88.0 °F 92.1 °F 69.1 °F 53% 29.98 in 10.0 mi WNW 12.7 mph - N/A   Clear
1:53 PM 89.1 °F 92.9 °F 68.0 °F 50% 29.96 in 10.0 mi WNW 13.8 mph - N/A   Clear
2:53 PM 88.0 °F 92.9 °F 70.0 °F 55% 29.94 in 10.0 mi West 13.8 mph - N/A   Clear
3:53 PM 88.0 °F 92.1 °F 69.1 °F 53% 29.92 in 10.0 mi West 11.5 mph - N/A   Clear
4:53 PM 88.0 °F 92.1 °F 69.1 °F 53% 29.92 in 10.0 mi West 11.5 mph - N/A   Clear
5:53 PM 88.0 °F 92.1 °F 69.1 °F 53% 29.92 in 10.0 mi West 9.2 mph - N/A   Clear
6:53 PM 86.0 °F 90.7 °F 70.0 °F 59% 29.92 in 10.0 mi WNW 9.2 mph - N/A   Clear
7:53 PM 84.9 °F 90.7 °F 72.0 °F 65% 29.94 in 10.0 mi WNW 9.2 mph - N/A   Clear
8:53 PM 84.0 °F 89.0 °F 71.1 °F 65% 29.95 in 10.0 mi WSW 5.8 mph - N/A   Scattered Clouds
9:53 PM 82.9 °F 87.5 °F 71.1 °F 67% 29.96 in 7.0 mi WSW 6.9 mph - N/A   Scattered Clouds
10:53 PM 82.9 °F 88.0 °F 72.0 °F 69% 29.99 in 10.0 mi WNW 3.5 mph - N/A   Scattered Clouds
11:53 PM 82.9 °F 88.8 °F 73.0 °F 72% 29.99 in 10.0 mi NNW 3.5 mph - N/A   Mostly Cloudy